Torna al catalogo

FENGYUN 1C DEB

LostPO
NORAD 38820·DEBRIS·🇨🇳 China

Lanciato May 10, 1999 da Taiyuan Satellite Launch Center

Loading…

Prossimi Passaggi (prossime 24 ore)

TLE

ObsoletoSource: Space-Track

Epoca: Sep 4, 2022, 06:32 UTC

1 38820U 99025EVL 22247.27268701  .00001726  00000-0  12398-2 0  9997
2 38820  98.2330 249.9745 0278772 149.1454 281.8774 13.81066790506345

Traccia FENGYUN 1C DEB in tempo reale con AllMySat

Download on the App Store